Presure
185 114 152 159 168 162 164 167 144 162 173 197 200 145 144 142 131 165 108 189 152 203 157 181 131 160 138 102 185 117 115 103 105 116 152 134 118 90 103 104 117 130 145 145 128
154 151 126 174 175 162 167 140 156 171 182 172 173 205 136 189 165 164 170 179 140 104 185 150 135 192 156 162 135 120 162 149 149 148 155 159 140 110 156 168 145 79 126 123 127
161 145 176 154 112 154 164 163 170 174 206 182 201 206 229 186 140 221 163 135 149 162 121 118 163 136 160 137 159 146 156 394 416 146 204 415 81 156 162 154 160 136 73 152 155
172 123 175 176 149 151 145 157 177 172 179 212 202 202 207 174 182 185 149 104 336 178 174 339 127 131 165 158 158 142 394 432 405 148 358 406 428 405 289 141 177 127 100 127 138
160 134 171 164 158 167 175 124 124 127 195 180 178 189 171 184 159 195 242 250 147 273 340 157 239 316 321 156 235 416 426 426 419 396 384 387 412 406 314 261 141 67 93 135 128
152 153 154 145 171 173 164 164 162 175 195 209 196 175 193 170 174 162 176 172 164 147 135 135 128 242 165 410 426 420 421 417 414 427 377 367 380 373 131 246 199 67 136 113 132
158 145 139 190 155 163 158 164 158 171 161 149 204 212 175 238 196 231 150 252 151 120 418 332 172 152 382 403 410 414 425 411 405 407 402 393 398 369 292 209 300 284 133 269 182
147 150 163 145 178 174 175 189 168 166 183 191 163 199 230 241 213 152 148 174 151 228 412 293 383 379 386 391 402 417 418 403 406 399 406 388 374 312 268 304 132 284 242 266 252
160 153 151 153 169 153 156 171 173 173 169 186 194 201 161 176 124 274 164 260 269 238 394 212 214 365 365 376 400 413 405 402 401 393 387 383 357 341 285 309 304 282 107 129 263
163 149 158 173 156 163 150 159 180 185 158 182 150 207 197 166 179 272 128 305 392 409 384 373 359 357 354 367 392 415 398 396 391 387 393 357 351 341 301 235 283 269 268 147 192
139 167 168 187 155 154 160 178 166 145 163 154 179 196 145 152 108 180 121 145 355 289 150 207 347 337 352 353 393 412 394 391 388 387 387 355 347 331 314 297 274 126 265 271 248
142 165 169 169 157 174 154 167 186 149 198 148 178 173 160 184 194 175 162 270 250 403 379 359 341 336 338 344 384 411 395 384 391 393 381 351 336 338 277 316 290 248 249 261 229
145 143 157 147 164 164 151 181 175 154 150 182 214 181 157 132 218 137 200 312 365 153 381 359 337 328 329 335 359 411 396 387 398 390 382 336 329 334 321 330 283 255 260 280 244
147 156 139 186 153 168 173 146 172 183 190 200 169 203 210 132 197 143 329 176 379 407 384 356 335 325 318 329 336 415 398 386 400 391 375 342 333 314 311 283 265 273 266 272 248
168 185 147 155 151 163 148 141 173 138 158 207 135 132 191 230 137 137 133 335 385 416 392 359 333 323 313 322 332 412 396 384 393 385 366 340 323 324 298 303 324 255 273 264 238
134 154 163 137 151 139 158 163 140 149 179 167 154 216 118 147 175 143 281 358 221 335 394 368 333 318 312 314 324 349 394 386 392 395 362 332 321 292 298 292 284 269 252 277 258
149 150 166 133 146 158 134 179 167 161 165 217 168 185 166 186 207 135 189 370 144 345 395 369 330 318 314 342 318 331 401 383 388 394 364 344 314 321 298 308 325 293 253 181 240
157 155 166 169 186 172 134 167 204 139 159 149 178 173 159 248 147 175 291 143 363 390 395 369 332 316 310 306 343 316 404 390 384 389 334 333 305 299 258 290 297 267 269 241 273
154 159 136 128 181 145 158 167 162 170 131 133 203 196 222 163 145 142 282 311 361 338 394 369 337 313 306 303 396 311 405 387 379 384 328 319 304 294 303 284 283 245 260 262 293
183 158 131 155 178 152 132 159 138 135 182 203 209 177 154 141 221 139 283 223 252 332 397 372 340 319 304 305 485 315 339 383 385 388 362 311 302 281 278 198 279 308 317 232 256
145 145 153 171 153 173 185 160 169 167 169 180 185 195 154 288 197 149 243 310 359 335 395 370 351 322 303 303 445 364 309 388 381 379 376 307 296 293 180 272 298 157 299 300 261
158 144 159 151 150 130 162 131 206 145 155 136 205 128 151 279 133 282 269 299 357 241 390 368 351 327 301 299 491 373 303 397 384 384 369 314 292 287 279 133 284 274 292 142 311
130 177 153 139 182 146 162 145 187 131 163 166 151 265 151 163 166 140 138 246 316 327 387 367 346 329 303 297 466 395 302 384 376 376 374 341 301 291 292 275 127 264 277 294 236
184 155 138 152 178 176 140 135 181 206 184 121 305 120 154 261 140 198 133 236 245 356 308 367 347 323 308 298 428 492 321 318 381 374 368 354 327 298 300 280 275 206 267 265 265
175 159 125 165 172 149 173 190 173 158 140 177 154 184 140 155 199 125 139 296 288 336 394 365 345 324 311 302 313 443 344 298 385 378 366 328 340 308 294 285 276 274 286 269 262
144 147 161 138 163 175 124 158 153 184 193 169 171 142 160 283 208 192 268 163 293 343 390 364 341 324 307 304 356 414 353 292 339 385 375 335 325 327 300 286 274 266 265 266 285
186 134 177 109 158 158 147 134 152 154 218 130 112 164 284 235 167 293 229 309 333 341 394 364 340 322 305 322 386 404 370 300 299 369 390 363 333 326 307 281 282 297 282 271 292
Wind_Speed
50 29 47 46 55 45 44 48 44 49 52 64 68 41 51 56 54 55 20 50 47 63 70 46 25 73 47 39 73 42 64 34 50 42 56 48 47 33 35 39 36 32 32 37 41
52 48 36 53 57 50 56 44 48 59 62 55 62 71 54 57 51 52 57 57 40 31 57 46 38 54 55 71 29 51 65 61 68 57 56 54 50 52 55 53 33 18 38 42 46
56 45 57 46 36 46 57 55 63 66 92 65 78 82 106 56 48 74 55 51 53 60 25 15 57 33 72 41 70 53 66 33 36 61 62 47 41 56 59 36 57 45 4 46 49
50 35 55 57 52 50 44 54 68 66 67 97 83 79 80 47 51 54 68 38 91 65 66 41 29 38 75 72 72 57 29 31 39 73 52 46 45 50 88 52 66 42 45 48 48
58 34 58 61 60 65 70 42 45 48 86 69 63 74 50 62 54 67 85 88 45 58 47 70 47 44 41 74 36 17 24 30 37 53 52 52 42 49 99 82 49 5 19 44 52
58 61 57 43 63 66 66 69 60 74 86 103 87 66 75 56 49 57 61 58 61 67 63 42 43 57 66 17 12 14 22 29 39 48 58 61 52 81 67 86 72 10 59 50 63
60 52 40 82 58 68 61 71 58 75 53 52 98 106 65 114 71 103 65 59 67 35 42 40 70 76 24 16 10 12 21 29 39 43 53 51 57 64 98 74 108 103 67 98 69
60 64 67 51 74 71 74 93 75 68 84 89 59 89 140 142 92 65 69 66 62 85 42 45 32 28 22 16 9 10 20 29 38 41 47 53 60 104 85 86 54 106 95 97 92
63 66 64 60 74 61 65 80 81 81 70 86 90 94 57 57 57 131 63 115 59 90 45 60 58 28 26 18 10 11 20 29 39 44 55 64 66 66 103 92 104 107 49 70 99
62 65 69 74 72 74 54 67 87 89 58 84 56 109 91 73 78 122 54 87 75 45 45 41 37 29 26 20 9 13 21 29 40 45 57 65 71 70 103 78 98 99 103 71 73
54 67 67 89 72 72 74 88 65 44 67 58 82 101 50 43 32 69 41 64 97 83 66 59 35 33 26 21 9 14 23 30 45 51 67 68 73 72 77 98 91 58 102 100 95
59 69 70 74 66 82 70 85 92 50 99 60 83 70 63 77 76 56 60 99 75 45 42 42 38 33 29 22 10 14 22 29 41 51 71 73 69 70 108 79 97 93 93 101 85
71 62 68 63 79 76 59 97 81 64 63 92 128 83 51 48 105 65 74 112 90 60 39 38 38 33 29 24 14 15 23 29 40 56 67 72 71 70 66 64 101 103 105 101 103
72 76 46 93 75 84 88 31 75 90 99 102 78 106 126 40 62 64 114 66 85 44 38 35 35 30 27 23 17 17 22 28 38 57 67 76 77 80 76 88 103 105 103 105 103
74 87 70 78 67 76 49 34 80 52 66 118 48 28 85 144 47 64 54 107 80 44 37 34 33 30 25 23 15 17 23 29 36 55 67 76 82 90 85 85 75 105 99 102 102
50 73 68 36 73 32 66 78 40 55 84 80 63 131 44 58 43 58 106 102 65 79 38 30 29 29 24 21 14 6 24 29 34 53 69 79 84 82 86 89 94 105 104 109 112
75 73 77 37 49 71 33 103 76 77 78 129 74 95 65 68 92 60 62 90 55 77 40 30 27 26 23 9 11 6 25 29 34 50 74 85 83 88 83 76 77 93 96 79 108
77 75 78 78 105 91 35 94 126 50 65 60 86 88 68 112 42 59 98 56 82 56 37 31 24 23 21 16 6 2 27 30 36 51 79 88 85 86 77 86 88 96 99 101 111
80 80 47 35 99 67 76 89 82 87 54 51 113 111 144 59 36 57 83 100 77 76 35 31 22 20 18 15 19 2 26 28 38 51 83 86 87 87 86 84 82 99 97 102 110
96 84 34 71 99 60 43 75 56 44 97 115 127 90 65 38 71 53 87 80 80 74 35 31 22 17 15 12 15 7 13 30 38 48 76 87 87 79 79 62 82 76 80 99 108
68 75 85 95 80 102 110 68 84 82 79 94 92 114 75 84 74 56 92 116 73 72 36 30 23 16 12 9 7 24 13 31 37 50 65 90 86 86 58 79 71 53 75 87 106
82 59 87 83 75 41 94 55 130 58 50 51 128 25 44 82 41 102 79 109 73 75 36 30 24 17 8 6 4 28 17 31 38 46 68 91 84 86 83 51 88 87 85 49 72
42 90 84 54 114 45 86 43 109 53 83 73 58 117 49 41 65 45 56 86 66 68 36 30 23 18 6 5 4 30 19 29 37 46 59 88 88 87 87 89 44 81 85 78 91
99 76 58 92 107 101 51 52 100 139 101 24 106 34 67 76 37 68 49 74 64 58 66 28 23 17 8 5 2 12 27 26 37 47 60 76 94 93 94 88 92 67 82 84 87
93 86 51 92 102 75 108 126 101 88 54 75 57 91 30 45 53 43 47 117 64 64 32 27 23 16 13 5 3 14 35 27 33 45 60 76 90 96 87 92 94 88 83 84 83
81 85 80 61 100 114 49 81 53 109 117 40 59 48 70 96 75 62 94 54 63 62 31 26 22 15 13 7 6 14 38 30 33 39 51 72 83 91 93 93 88 82 84 83 83
111 47 102 35 87 90 77 65 82 70 135 30 31 48 104 86 58 121 63 114 60 44 30 25 22 16 12 8 11 12 38 36 35 36 40 58 79 85 92 87 91 94 93 86 81
Wind_Direction
2 309 337 337 337 334 336 336 306 323 328 338 341 306 305 286 294 274 198 296 280 291 280 271 307 277 247 256 274 224 240 267 260 233 273 252 253 183 230 248 226 231 235 229 232
339 334 306 341 343 336 337 322 316 334 337 326 331 340 295 314 297 285 291 289 296 251 283 286 306 264 289 289 303 242 276 280 268 283 273 269 256 244 259 256 226 232 226 238 232
330 319 344 333 305 331 337 335 336 334 350 335 343 342 350 319 288 333 285 313 289 283 310 265 289 280 285 299 291 292 293 247 221 275 240 220 224 253 251 229 243 220 282 229 234
339 315 342 340 325 329 321 334 334 334 333 351 343 342 336 304 316 309 281 262 341 289 288 322 300 310 285 289 290 292 237 223 213 230 217 211 201 200 212 245 242 204 229 223 231
330 304 343 330 332 333 339 296 296 297 345 331 327 335 315 320 297 327 336 329 291 302 313 288 307 303 302 295 257 248 223 214 203 200 200 206 188 185 204 209 235 226 218 238 223
331 331 332 318 339 332 332 333 336 337 345 351 344 328 335 312 312 315 305 301 293 295 305 303 315 298 302 307 279 237 220 204 200 199 198 199 196 194 236 211 206 218 228 231 239
331 331 321 344 334 329 336 333 336 334 327 309 346 347 323 344 329 336 291 323 292 325 344 333 296 300 321 319 283 239 209 198 196 199 195 197 179 184 205 213 198 203 212 206 216
327 327 328 327 337 336 336 345 337 335 341 340 323 340 351 348 340 299 293 309 299 342 348 327 346 341 334 331 282 230 203 193 192 185 183 178 168 197 198 201 227 201 201 206 203
321 321 326 327 330 332 333 331 333 332 334 338 342 343 314 321 302 344 305 343 341 345 348 314 313 345 340 334 294 211 201 192 185 180 177 168 172 179 202 194 194 199 229 216 199
323 324 325 335 324 331 334 333 335 340 328 337 309 345 339 332 331 343 314 343 352 348 348 349 352 346 340 337 303 202 193 188 181 180 175 174 173 179 197 203 198 202 201 216 207
328 324 327 341 325 327 329 332 341 309 335 326 335 341 321 317 333 328 333 308 353 347 318 324 351 347 339 338 306 200 193 187 182 179 174 174 167 181 188 195 197 217 201 196 200
327 324 329 329 334 334 330 329 342 329 344 316 336 332 325 330 340 331 322 345 341 346 344 344 349 349 344 340 318 201 192 189 185 178 171 168 167 167 202 187 192 202 204 200 187
318 321 326 329 326 329 333 338 337 325 321 338 348 335 334 309 338 305 337 350 354 321 345 343 344 349 344 342 330 196 192 189 183 177 172 173 177 165 171 177 190 199 202 184 198
316 315 327 338 324 326 327 330 335 336 342 343 334 343 342 310 338 310 356 329 355 349 344 343 340 347 345 342 337 191 191 189 183 176 174 174 170 172 172 194 198 191 194 185 195
325 336 321 318 326 327 333 312 333 304 337 343 318 323 336 342 303 303 322 354 353 350 344 343 338 347 346 345 338 188 190 190 184 177 174 173 174 168 180 178 182 193 184 186 200
322 320 333 325 322 315 329 327 305 328 340 327 330 344 304 317 337 312 340 351 341 353 346 342 340 344 346 350 345 310 191 190 185 180 174 174 176 186 184 190 190 192 198 178 182
311 317 320 322 331 329 304 330 330 326 333 343 330 334 335 337 335 313 350 351 330 351 349 344 341 342 347 335 350 339 188 189 185 183 174 174 176 175 181 182 182 187 191 203 197
309 318 316 328 333 323 295 323 337 304 336 320 333 331 324 339 332 350 357 329 349 349 346 345 342 342 346 351 260 332 192 189 183 184 175 174 178 178 188 188 189 195 196 200 187
305 311 322 301 332 311 323 323 321 326 309 316 339 336 337 329 334 318 353 356 349 348 346 343 342 340 344 347 212 228 196 188 183 186 178 178 179 183 183 194 194 202 200 192 189
322 306 308 320 330 317 295 322 304 310 333 336 340 329 316 331 341 328 353 348 346 347 344 343 342 338 341 344 179 217 188 185 184 188 185 180 181 192 192 212 195 186 187 206 194
303 311 306 324 311 324 327 320 323 322 332 327 333 336 328 348 331 326 352 352 347 347 342 342 346 337 334 339 191 207 192 186 187 188 190 186 189 187 210 196 175 209 185 191 197
304 312 308 310 317 289 316 294 331 319 326 315 333 315 322 341 315 358 356 354 346 334 339 341 344 339 329 331 169 199 196 189 188 187 190 188 194 194 196 226 181 193 187 224 192
300 321 305 314 326 300 320 317 327 310 318 330 325 335 338 327 330 330 320 338 342 344 338 340 343 336 334 316 80 194 201 190 188 188 192 191 194 198 193 193 235 202 192 191 204
318 304 301 309 320 322 306 300 326 328 325 307 335 304 316 338 325 346 319 342 340 342 345 336 340 335 331 314 201 182 197 191 189 191 192 194 192 195 193 195 194 209 202 201 203
315 306 294 313 316 306 320 322 318 317 315 324 306 325 337 324 330 315 322 347 337 342 336 334 337 336 320 328 244 183 198 195 190 194 195 195 196 194 196 195 198 199 194 201 205
301 303 310 308 307 317 300 316 308 316 318 313 321 324 313 341 340 342 354 324 337 341 335 333 333 331 317 314 235 196 199 199 193 197 197 197 197 194 196 195 201 201 202 203 196
315 294 313 304 310 313 304 293 310 304 319 328 305 329 342 334 326 341 328 341 341 334 336 330 329 327 315 301 223 200 196 196 197 196 199 199 200 200 196 199 201 198 194 200 191